[Iaude] MPEC E132: 2024 EU2 [a=1.62,e=0.53,i=2.4,H=24.8]
    mpec at cfa.harvard.edu 
    mpec at cfa.harvard.edu
       
    Fri Mar  8 18:39:16 EST 2024
    
    
  
M.P.E.C. 2024-E132                                Issued 2024 March 8, 23:37 UT
     The Minor Planet Electronic Circulars contain information on unusual
         minor planets, routine data on comets and natural satellites,
         and occasional editorial announcements.  They are published
    on behalf of Division F of the International Astronomical Union by the
          Minor Planet Center, Smithsonian Astrophysical Observatory,
                          Cambridge, MA 02138, U.S.A.
			  
             Prepared using the Tamkin Foundation Computer Network
                              MPC at CFA.HARVARD.EDU
            URL https://www.minorplanetcenter.net/    ISSN 1523-6714
                                    2024 EU2                                    
Observations:
     K24E02U*1C2024 03 07.37929811 42 30.492-02 52 08.22         22.28GVEE132G96
     K24E02U 1C2024 03 07.38501311 42 29.160-02 52 03.50         20.64GVEE132G96
     K24E02U 1C2024 03 07.39074111 42 27.882-02 51 56.95         21.27GVEE132G96
     K24E02U 1C2024 03 07.39643911 42 26.586-02 51 51.73         21.46GVEE132G96
     K24E02U KC2024 03 07.44476711 42 16.412-02 51 05.90         20.91GVEE132I52
     K24E02U KC2024 03 07.44903911 42 15.415-02 51 01.94         22.21GVEE132I52
     K24E02U KC2024 03 07.45330711 42 14.548-02 50 57.95         21.85GVEE132I52
     K24E02U KC2024 03 07.93123111 40 48.029-02 43 45.30         21.1 GVEE132598
     K24E02U KC2024 03 07.93549711 40 47.191-02 43 41.52         20.7 GVEE132598
     K24E02U |C2024 03 08.13548011 40 11.510-02 39 26.80         20.8 GVEE132807
     K24E02U |C2024 03 08.14318011 40 09.950-02 39 20.20         21.0 GVEE132807
     K24E02U |C2024 03 08.15088311 40 08.410-02 39 13.10         21.1 GVEE132807
     K24E02U 1C2024 03 08.95181 11 37 49.09 -02 29 01.0          21.0 VXEE132033
     K24E02U 1C2024 03 08.95506 11 37 48.47 -02 28 58.5          20.3 VXEE132033
     K24E02U 1C2024 03 08.95830 11 37 47.94 -02 28 55.9          20.6 VXEE132033
Observer details:
033 Karl Schwarzschild Observatory, Tautenburg.  Observers S. Melnikov, C.
    Hogner, F. Ludwig, M. Hartmann, B. Stecklum.  Measurer B. Stecklum.
    1.34-m f/3 Schmidt + CCD.
598 Loiano.  Observer A. Carbognani.  1.52-m f/4.75 Reflector + CCD.
807 Cerro Tololo Observatory, La Serena.  Observers T. Linder, R. Holmes.
    0.61-m f/6.8 Ritchey-Chretien + CCD.
G96 Mt. Lemmon Survey.  Observer J. B. Fazekas.  Measurers T. Beuden, V. F.
    Carvajal, D. Fay, J. B. Fazekas, D. C. Fuls, A. R. Gibbs, A. D. Grauer, H.
    Groeller, J. K. Hogan, R. A. Kowalski, S. M. Larson, G. J. Leonard, D.
    Rankin, R. L. Seaman, F. C. Shelly, K. W. Wierzchos.  1.5-m reflector +
    10K CCD.
I52 Steward Observatory, Mt. Lemmon Station.  Observers V. F. Carvajal, G. J.
    Leonard.  Measurers T. Beuden, V. F. Carvajal, D. Fay, J. B. Fazekas, D.
    C. Fuls, A. R. Gibbs, A. D. Grauer, H. Groeller, J. K. Hogan, R. A.
    Kowalski, S. M. Larson, G. J. Leonard, D. Rankin, R. L. Seaman, F. C.
    Shelly, K. W. Wierzchos.  1.0-m prime focus + CCD.
Orbital elements:
2024 EU2                                                 Earth MOID = 0.0027 AU
Epoch 2024 Mar. 31.0 TT = JDT 2460400.5                 Veres                   
M  41.18100              (2000.0)            P               Q                  
n   0.47737608     Peri.  106.75015     +0.12950708     -0.99142563             
a   1.6214203      Node   335.78828     +0.89282006     +0.12422950             
e   0.5275819      Incl.    2.43314     +0.43139338     +0.04052460             
P   2.06           H   24.87          G   0.15           U   8                  
Residuals in seconds of arc
240307 G96  1.3+  0.4+    240307 I52  0.5-  0.1-    240308 807  0.3-  0.2-
240307 G96  0.0   0.3-    240307 I52  0.0   0.2-    240308 807  0.2-  0.1+
240307 G96  0.6-  0.7+    240307 598  0.2+  0.1-    240308 033  0.5+  0.5+
240307 G96  1.5-  0.5+    240307 598  0.6+  0.2-    240308 033  0.0   0.3+
240307 I52  1.0+  0.0     240308 807  0.0   0.0     240308 033  0.9+  0.2+
Ephemeris:
2024 EU2                 a,e,i = 1.62, 0.53, 2                   q = 0.7660
Date    TT    R. A. (2000) Decl.     Delta      r    Elong.  Phase     V
2024 02 07    21 29 40.5 -06 44 52   0.09299 0.8945     9.2   169.8
...
2024 02 22    14 23 23.9 -12 55 11   0.04077 1.0067   114.7    63.2    20.2
...
2024 03 01    12 13 23.2 -05 12 40   0.08852 1.0718   155.2    22.8    20.8
...
2024 03 07    11 43 47.0 -02 57 38   0.1318  1.1217   168.3    10.3    21.4
2024 03 08    11 40 34.4 -02 41 58   0.1394  1.1301   169.9     8.8    21.5
2024 03 09    11 37 40.6 -02 27 34   0.1470  1.1385   171.5     7.4    21.5
...
2024 03 15    11 25 07.5 -01 21 12   0.1950  1.1888   174.9     4.3    22.1
...
2024 03 23    11 16 22.8 -00 27 15   0.2646  1.2557   166.8    10.5    23.1
...
2024 04 07    11 12 36.9 +00 14 01   0.4138  1.3785   151.4    20.4    24.7
M. P. C. Staff               (C) Copyright 2024 MPC           M.P.E.C. 2024-E132
    
    
More information about the Iaude
mailing list